Presure
87 183 120 103 91 89 94 97 113 108 110 108 111 110 111 80 94 104 110 118 99 118 186 201 199 198 193 199 194 186 185 191 184 184 182 191 183 182 186 184 189 187 175
135 187 115 110 120 116 77 98 98 88 104 104 94 98 87 104 96 88 195 110 187 184 199 198 208 184 188 193 191 192 185 197 180 178 163 173 174 171 176 169 189 181 190
205 199 146 146 190 150 116 180 111 107 95 107 95 118 88 110 98 101 195 195 102 202 193 201 199 190 193 174 185 180 180 180 179 180 172 176 164 179 180 178 175 169 176
245 201 193 184 166 194 161 154 115 118 185 75 96 88 90 194 170 179 188 183 207 191 201 199 186 190 182 186 178 178 185 178 165 181 180 180 175 171 167 181 182 188 187
214 87 197 190 90 84 181 176 179 79 90 173 161 115 195 202 201 115 117 190 110 178 195 187 192 191 186 176 182 185 188 186 182 183 186 169 172 176 162 164 177 196 190
226 134 207 189 86 156 91 98 181 117 199 183 167 170 112 208 104 109 108 111 110 200 192 192 193 184 181 189 191 191 182 173 186 171 173 195 179 186 173 171 173 163 179
226 197 83 91 156 187 188 136 179 162 188 143 148 213 197 181 111 162 194 199 192 190 190 191 191 191 129 192 186 177 178 180 170 173 169 194 177 188 206 205 241 256 244
214 82 204 90 187 185 184 186 176 171 191 180 177 198 125 205 185 192 196 193 188 188 181 184 183 182 173 176 177 173 178 173 185 203 200 200 193 193 272 201 239 203 264
216 229 224 207 185 183 189 180 178 178 189 179 195 203 200 195 195 199 195 186 194 191 187 190 185 172 175 167 177 174 186 198 194 185 202 260 274 251 236 233 268 267 250
214 228 229 211 183 183 182 179 188 183 186 184 181 202 197 194 198 194 195 193 169 190 188 182 183 184 183 176 181 188 185 182 205 214 199 257 235 238 261 254 240 284 246
215 201 194 207 190 183 182 186 181 186 185 183 205 200 196 193 190 194 201 194 196 182 181 184 183 183 182 184 181 186 199 202 214 267 231 144 262 254 233 264 185 145 199
216 230 226 206 194 183 189 180 175 187 186 192 123 198 101 193 195 204 198 192 190 189 188 181 188 181 179 185 192 196 205 223 263 226 258 261 243 269 137 145 144 213 220
213 228 221 208 191 184 184 180 181 182 182 198 201 196 195 198 194 195 192 190 187 182 191 184 178 182 189 193 194 207 215 260 211 262 251 247 215 136 153 164 211 230 230
220 227 218 204 187 181 177 183 182 178 193 199 198 199 194 201 195 191 189 180 190 183 176 182 188 188 191 196 207 230 254 220 258 207 237 157 181 211 217 230 236 241 274
227 221 212 199 183 186 180 179 175 184 196 199 199 199 199 192 186 177 183 185 171 180 187 188 186 193 184 205 240 203 248 257 209 217 218 205 209 223 233 235 259 284 331
225 219 208 187 183 179 177 176 184 194 202 203 200 199 190 175 187 183 164 177 185 189 181 177 141 199 212 256 218 262 137 179 213 182 164 212 226 230 241 267 314 324 518
221 212 189 185 178 177 174 184 193 204 198 196 195 187 186 181 178 174 182 171 149 147 192 180 203 227 252 221 216 238 223 206 176 209 212 225 229 248 279 326 383 519 487
212 187 180 177 178 179 184 193 198 197 193 184 183 182 185 174 180 185 185 152 176 155 197 208 243 226 196 195 243 210 182 183 203 216 224 234 257 308 331 453 521 478 439
181 176 175 177 175 185 193 199 196 193 186 185 186 177 182 184 172 191 186 187 167 204 225 258 215 180 152 233 202 163 198 199 216 218 237 267 314 328 501 511 478 433 436
178 176 179 180 189 193 190 161 180 188 185 178 181 183 187 185 129 174 190 200 214 252 210 140 210 287 209 182 191 198 199 210 217 241 267 309 324 510 496 470 436 415 386
179 180 183 190 190 182 183 183 181 178 180 184 186 182 188 191 190 168 209 236 249 170 141 273 242 194 204 183 200 207 213 223 255 284 307 320 508 487 465 436 403 381 398
182 184 185 184 183 185 178 180 181 163 188 181 185 164 191 200 204 231 258 163 135 235 284 214 169 189 193 205 211 213 232 254 304 304 329 529 486 447 420 383 369 375 392
184 179 178 181 177 181 182 185 185 171 188 191 190 201 200 225 256 222 134 135 142 227 202 200 185 194 201 208 207 228 253 306 313 347 559 486 448 405 373 369 388 398 345
180 183 181 180 175 162 168 178 187 179 190 201 202 238 254 224 148 135 134 142 143 201 197 187 177 198 210 215 245 299 310 329 479 557 486 450 408 370 373 388 391 319 321
176 183 137 123 183 188 187 134 193 150 175 247 245 224 206 315 134 134 139 143 200 191 179 189 202 218 225 249 308 305 331 478 530 507 451 408 372 369 347 333 321 318 316
183 186 187 186 184 191 198 203 235 245 236 220 209 263 291 233 131 136 139 187 195 194 205 206 219 234 263 297 317 330 447 499 533 453 420 369 356 339 324 315 312 305 300
Wind_Speed
36 72 52 52 43 36 44 43 50 50 49 47 47 46 47 30 36 47 53 45 44 52 71 67 63 61 58 52 51 55 52 49 51 53 54 57 57 60 61 61 65 65 69
61 76 53 41 55 53 23 45 44 32 46 48 34 39 35 46 40 40 63 46 68 67 68 62 58 62 60 55 55 52 52 55 56 55 72 65 65 67 67 73 76 72 79
75 75 65 65 67 60 58 58 54 51 40 51 40 57 37 52 47 52 63 64 53 64 62 61 57 59 55 65 60 62 61 59 59 62 65 64 75 75 79 77 77 78 80
69 76 79 74 65 63 59 58 57 60 51 26 45 38 41 58 59 59 61 64 60 63 59 58 62 58 63 61 64 65 61 63 73 65 68 69 69 74 76 91 94 97 96
65 34 79 72 34 26 65 61 58 31 38 53 55 60 54 55 55 61 63 61 63 59 61 63 60 59 61 67 64 62 67 68 70 73 77 77 75 72 78 77 89 100 101
73 49 77 71 36 61 41 46 58 61 52 55 51 52 58 53 58 62 62 65 64 58 60 59 61 63 64 64 66 67 66 69 73 75 77 89 81 86 83 81 84 86 100
71 66 30 39 65 66 62 54 61 59 54 53 56 49 52 56 66 59 58 56 58 60 59 61 61 63 50 65 64 67 71 74 77 79 82 91 85 94 97 97 91 85 87
75 34 67 41 73 66 64 61 62 62 55 58 58 50 57 52 56 57 56 58 61 62 62 62 62 62 69 68 69 74 77 81 88 95 95 97 95 97 94 81 92 92 90
77 75 73 66 72 68 64 61 61 61 57 58 54 52 52 54 56 55 58 60 59 60 62 63 63 71 70 77 75 80 87 94 93 90 99 103 96 98 98 100 101 99 87
76 74 69 63 72 69 64 60 58 59 59 58 57 52 53 56 56 57 59 60 57 62 63 66 67 68 71 75 81 88 88 89 100 103 89 100 99 101 102 101 99 104 100
78 69 59 64 70 65 61 58 58 57 58 56 52 53 55 56 57 58 60 60 61 62 66 66 68 72 76 80 83 89 97 99 104 103 98 74 103 102 97 99 85 76 94
72 71 65 62 64 63 58 58 59 55 54 52 39 54 38 57 57 61 60 59 61 64 66 68 74 75 78 85 92 96 102 109 104 103 104 103 98 98 71 77 81 100 108
69 68 63 63 62 58 54 55 54 55 55 52 54 56 57 58 57 57 59 61 63 65 70 71 74 80 86 92 95 103 106 104 102 102 100 96 92 72 84 89 100 116 119
65 64 59 57 57 54 52 50 51 56 53 53 55 57 57 59 58 59 60 62 66 69 70 75 82 84 90 96 102 113 104 103 103 95 94 79 90 98 105 116 121 126 139
63 60 56 52 52 47 48 51 56 56 53 54 55 57 58 57 57 59 62 65 68 71 77 80 82 90 89 102 111 92 103 101 85 97 101 97 101 113 120 123 134 145 144
58 55 50 46 44 47 52 54 54 53 52 54 55 56 55 55 59 62 65 68 73 77 76 78 62 98 105 105 102 99 70 84 97 86 89 107 117 120 128 138 144 143 74
51 45 41 43 47 50 52 51 50 50 51 53 54 54 56 58 61 65 69 66 60 63 86 80 99 109 101 101 87 91 93 97 88 104 107 118 122 131 140 138 120 64 58
44 40 43 45 46 48 49 50 49 50 51 51 53 55 58 61 65 69 72 62 75 67 93 99 107 100 80 82 89 91 89 93 103 114 120 126 133 140 134 97 60 51 51
42 42 44 44 45 47 47 48 48 49 51 51 55 58 61 65 63 74 76 78 71 94 104 98 97 76 74 88 90 84 99 100 116 120 128 136 133 131 77 61 48 45 40
40 41 40 41 43 44 45 44 47 49 51 55 58 61 66 68 49 70 82 89 97 96 93 63 82 88 88 84 88 96 101 111 117 128 136 131 130 65 59 48 41 34 38
36 37 39 41 42 43 44 45 48 51 55 59 61 62 69 75 77 65 92 97 91 74 65 88 84 86 91 84 99 107 114 120 128 134 126 127 60 55 46 37 33 34 32
34 36 39 41 42 43 45 49 52 47 59 58 64 58 74 82 86 95 87 64 59 76 79 83 80 86 92 102 109 116 125 130 124 124 125 56 49 43 33 35 37 34 15
36 39 40 41 44 46 50 53 55 52 63 67 70 79 80 91 83 85 53 59 65 74 82 86 82 94 102 109 111 122 130 122 122 126 53 47 41 32 37 39 33 20 19
39 40 42 45 45 43 48 53 61 60 67 75 78 85 79 81 53 53 58 65 70 81 85 83 84 99 110 115 121 120 119 121 71 54 46 41 30 33 31 25 20 27 25
39 44 31 32 51 56 58 37 65 49 62 78 75 77 78 66 52 57 64 70 81 81 79 89 100 108 112 120 119 116 120 70 57 44 37 30 30 29 22 24 25 26 27
44 48 51 54 55 60 66 69 69 69 72 74 75 72 68 61 54 63 68 78 83 87 96 102 108 114 123 118 119 121 83 61 45 34 28 29 26 22 24 27 25 26 28
Wind_Direction
234 242 244 240 250 256 259 261 257 261 263 267 270 274 277 282 282 286 288 288 296 282 282 285 284 286 286 291 288 286 286 295 292 294 292 301 291 290 291 290 292 287 278
234 239 240 237 241 248 248 257 260 264 266 270 276 274 275 281 283 283 273 276 275 280 281 281 283 282 283 287 288 291 288 302 290 288 289 286 287 282 284 283 296 289 294
230 231 237 242 241 246 255 251 257 262 266 269 275 275 276 282 280 285 270 273 290 278 279 280 280 280 285 285 287 286 289 289 287 291 287 291 296 296 296 290 284 283 284
225 229 232 237 242 240 247 252 261 262 258 280 274 276 279 266 271 270 270 274 273 276 277 277 277 282 280 281 285 286 295 287 286 290 288 290 286 288 290 298 298 298 297
226 247 231 234 248 254 243 248 250 272 266 260 265 275 263 262 263 286 285 272 293 280 274 277 279 283 282 282 289 293 294 295 293 294 295 285 284 286 283 283 292 291 291
222 232 230 232 251 243 254 257 248 263 254 258 265 267 282 262 289 289 291 292 293 273 275 279 282 280 283 290 291 292 291 285 293 285 285 293 286 292 286 285 284 284 288
221 225 247 244 241 240 241 253 248 256 255 262 269 256 262 269 285 275 268 270 271 274 277 281 285 287 291 291 291 287 288 290 284 285 285 292 285 288 290 289 291 291 288
222 264 228 254 236 239 241 243 250 256 254 259 264 261 279 266 267 267 268 269 272 275 278 282 283 286 284 286 288 287 290 286 294 296 294 293 293 292 299 295 293 286 291
220 219 222 223 234 238 239 244 250 254 256 259 262 261 262 265 267 267 269 272 276 279 281 285 286 283 285 285 290 289 295 297 296 294 296 303 303 301 299 297 299 296 293
218 219 220 220 233 236 240 245 248 253 256 260 265 262 264 267 269 271 273 276 281 280 283 284 287 290 291 289 293 295 295 294 299 301 301 303 303 301 302 301 300 300 297
213 217 221 217 229 237 241 244 250 254 259 264 263 264 266 269 273 276 277 279 280 281 284 288 290 292 293 295 295 297 300 301 303 305 304 296 303 303 301 302 297 294 298
212 212 214 218 227 236 239 246 253 257 262 266 272 266 280 272 276 276 278 281 282 285 288 289 295 294 294 298 299 301 303 306 305 305 304 304 304 304 295 297 297 303 303
210 210 213 218 227 236 241 248 253 258 263 266 264 267 271 273 277 280 282 284 286 289 293 294 293 296 299 301 302 304 306 305 304 304 305 304 302 296 298 300 304 305 305
207 209 213 218 229 237 244 249 254 259 263 264 267 270 275 276 280 283 285 287 291 291 291 295 298 299 301 303 305 306 305 304 305 303 304 299 302 305 306 307 307 306 305
205 209 213 219 231 237 245 250 256 259 265 267 271 272 276 280 284 285 289 291 287 293 298 299 298 302 302 304 305 304 305 305 306 304 304 305 308 308 308 309 308 308 307
204 209 214 225 231 239 246 253 258 265 267 268 272 276 279 282 286 290 285 290 295 298 296 301 296 303 304 305 305 305 306 305 304 302 301 309 308 311 310 308 310 310 314
206 210 218 225 235 242 249 255 262 266 269 273 276 280 284 286 287 287 292 295 295 297 302 298 302 302 303 304 305 307 305 306 303 307 310 310 312 310 310 311 311 314 310
207 210 221 232 240 248 254 261 264 268 271 275 279 283 287 284 289 294 297 294 300 295 301 302 302 304 305 306 306 305 304 306 310 310 312 312 311 311 312 315 317 312 307
210 222 231 238 247 252 259 264 268 271 275 281 284 282 287 292 294 297 299 299 298 300 302 302 304 306 306 305 306 302 307 311 310 313 311 311 311 312 317 318 318 311 315
220 230 236 245 251 258 262 269 271 278 281 280 285 290 293 295 287 296 298 299 301 300 302 307 305 306 304 304 309 310 311 312 313 311 312 312 314 318 318 319 316 315 315
232 239 246 252 257 261 268 274 277 279 282 285 290 292 296 296 296 296 299 299 300 304 307 305 305 305 307 308 311 310 312 312 312 312 312 314 319 319 320 319 316 318 323
240 247 253 258 263 269 272 274 277 280 286 291 294 292 294 296 298 298 299 303 308 304 305 304 304 311 311 311 312 312 310 313 314 313 316 320 319 319 319 315 318 320 317
247 254 260 265 269 272 275 279 283 287 291 291 292 294 295 296 297 299 306 309 307 304 303 305 312 311 312 312 314 310 312 315 315 318 323 321 321 318 318 318 320 319 306
256 261 266 270 273 273 280 285 287 289 290 293 293 294 295 298 301 306 310 308 309 304 306 312 308 313 311 310 312 317 317 318 322 323 320 319 318 317 322 326 324 323 321
260 265 266 276 278 281 284 282 288 289 292 290 293 295 296 304 307 310 309 308 304 306 310 310 311 310 308 312 319 316 319 323 323 322 317 318 318 322 326 327 329 328 325
269 272 275 278 281 283 285 288 287 287 290 293 294 298 301 300 310 310 308 304 307 310 310 311 310 313 315 319 320 321 323 323 323 319 316 314 319 321 325 325 324 322 322